Location: ????????
(60.5616°N, 46.8254°E)
Time: 09:39:14
(UTC+00:00)

Cosmos 1627 Rocket - Pass Details

Date: 18 February 2020
Orbit: 950 x 1005 km, 82.9° (Epoch: 03 April)

Event Time Altitude Azimuth Distance (km) Brightness Sun altitude
Rises 17:18:59 0° 345° (NNW) 3,713 8.1 -26.0°
Reaches altitude 10° 17:21:32 10° 348° (NNW) 2,753 7.3 -26.3°
Maximum altitude 17:27:51 73° 73° (ENE) 1,021 4.4 -27.0°
Enters shadow 17:28:15 71° 103° (ESE) 1,033 4.3 -27.0°
